Regional Weather Roundup
Issued by NWS Green Bay, WI

Home | Current Version | Previous Version | Graphics & Text | Print | Product List | Glossary Off
Versions: 1 2 3 4 5 6 7 8 9 10 11 12 13 14 15 16 17 18 19 20 21 22 23 24 25 26 27 28 29 30 31 32 33 34 35 36 37 38 39 40 41 42 43 44 45 46 47 48 49 50

000
ASUS43 KGRB 252310
RWRGRB

NORTH-CENTRAL AND NORTHEAST WISCONSIN REGIONAL WEATHER ROUNDUP
NATIONAL WEATHER SERVICE GREEN BAY WI
500 PM CST THU DEC 25 2014

WIZ005-009-010>012-018-019-260000-
NORTH CENTRAL WISCONSIN

CITY           SKY/WX    TMP DP  RH WIND       PRES   REMARKS
IRONWOOD       CLOUDY    30  28  93 W6        29.78R
MANITOWISH WTR CLOUDY    30  28  94 SW7       29.79R
ARBOR VITAE    CLOUDY    32  29  88 SW5       29.80R
EAGLE RIVER    CLOUDY    30  29  95 SW7       29.80R
LAND O LAKES   CLOUDY    31  29  92 SW5       29.80R
RHINELANDER    LGT SNOW  29  27  92 SW9       29.81R FOG
PHILLIPS       FLURRIES  30  28  92 CALM      29.79R
ANTIGO         CLOUDY    30  28  93 SW5       29.83R
TOMAHAWK       CLOUDY    30  28  93 CALM      29.82R
MERRILL        CLOUDY    32  30  92 CALM      29.82F
$$

WIZ013-073-260000-
NORTHEAST WISCONSIN

CITY           SKY/WX    TMP DP  RH WIND       PRES   REMARKS
IRON MOUNTAIN  CLOUDY    32  28  85 SW3       29.82R
MARINETTE      CLOUDY    34  28  80 SW7       29.87R
OCONTO         CLOUDY    35  31  86 SW5       29.89R
$$

WIZ017-030-035>037-045-260000-
CENTRAL WISCONSIN

CITY           SKY/WX    TMP DP  RH WIND       PRES   REMARKS
MEDFORD        CLOUDY    30  28  90 CALM      29.80F
WAUSAU         CLOUDY    32  27  81 S5        29.82S
MOSINEE        MOCLDY    32  30  93 S5        29.84S
MARSHFIELD     MOCLDY    32  27  81 SE5       29.81F
WISC RAPIDS    MOCLDY    32  27  81 SE5       29.85S
STEVENS POINT  MOCLDY    30  27  88 SE3       29.85S
WAUPACA        CLOUDY    35  30  82 CALM      29.87R
SHAWANO        CLOUDY    36  30  78 CALM      29.87R
CLINTONVILLE   CLOUDY    34  30  86 S3        29.87R
$$

WIZ038-039-048-051-260000-
FOX VALLEY

CITY           SKY/WX    TMP DP  RH WIND       PRES   REMARKS
NWS GREEN BAY  CLOUDY    35  30  82 S5        29.89R
APPLETON       MOCLDY    34  30  86 VRB5      29.88R
OSHKOSH        CLOUDY    35  30  82 CALM      29.88R
FOND DU LAC    CLOUDY    34  29  82 S6        29.88S
$$

WIZ022-050-052-260000-
EAST CENTRAL WISCONSIN

CITY           SKY/WX    TMP DP  RH WIND       PRES   REMARKS
STURGEON BAY   CLOUDY    34  28  80 SW12      29.90R
MANITOWOC      CLOUDY    37  32  82 S6        29.91R
SHEBOYGAN      MOCLDY    36  29  75 S9        29.91R
$$

LMZ563-521-522-541>543-260000-
LAKESHORE

STATION/POSITION TIME  TEMP    WIND        PRES    VSBY  WAVE
                       AIR SEA DIR/SP/G                  HT/PER
                 (UTC) (F)     (DEG/KT/KT) (MB)    (MI)  (FT/S)
SHEBOYGAN LKSHOR 2300   39 37  200/ 10/ 11 1013.7R
KEWAUNEE LKSHORE 2300   36     210/  5/  7 1011.7R
ALGOMA MARINA    2300          240/ 10/ 12   N/A
TWO RIVERS CG    2200   36                 1012.4      6   3
NORTHPORT PIER   2300   35     220/  3/ 11 1011.5R
SISTER BAY LKSHO 2200          250/ 16/ 18   N/A
STURGEON BAY CG  2200   35 34  210/  9     1002.3   1 1/4
CHAMBERS ISLAND  2300   35     200/  8/ 15 1011.9R
MENOMINEE LKSHOR 2300   35     200/  7/ 10 1012.3R
$$


USA.gov is the U.S. government's official web portal to all federal, state and local government web resources and services.